,,,PA_Meas_PMT16A,,PR_Meas_QMR101_102,,RH_Meas_QMH101,,SR_Meas_QMS101,,TA_Meas_QMH101,,GenWind,,GenWind,
date,time,status,PA,status,PR,status,RH,status,SR,status,TA,status,DirAvg,status,SpdAvg,
2008-05-30, 00:00:04,VALID,1009,VALID,0,VALID,95.1999,VALID,0,VALID,24.1812,VALID,125,VALID,0.508203,
2008-05-30, 00:01:04,VALID,1009.02,VALID,0,VALID,95.177,VALID,0,VALID,24.2025,VALID,137,VALID,0.551172,
2008-05-30, 00:02:04,VALID,1008.99,VALID,0,VALID,95.1465,VALID,0,VALID,24.1812,VALID,135,VALID,0.337109,
2008-05-30, 00:03:04,VALID,1008.95,VALID,0,VALID,95.177,VALID,0,VALID,24.1812,VALID,133,VALID,0.257031,
2008-05-30, 00:04:04,VALID,1008.93,VALID,0,VALID,95.1542,VALID,0,VALID,24.1617,VALID,133,VALID,0.355469,
2008-05-30, 00:05:04,VALID,1008.9,VALID,0,VALID,95.1236,VALID,0,VALID,24.1617,VALID,133,VALID,0.147266,
2008-05-30, 00:06:04,VALID,1008.9,VALID,0,VALID,95.116,VALID,0,VALID,24.1617,VALID,133,VALID,0,
2008-05-30, 00:07:04,VALID,1008.91,VALID,0,VALID,95.1084,VALID,0,VALID,24.1422,VALID,133,VALID,0.120312,
2008-05-30, 00:08:04,VALID,1008.91,VALID,0,VALID,95.116,VALID,0,VALID,24.1635,VALID,133,VALID,0,
2008-05-30, 00:09:04,VALID,1008.93,VALID,0,VALID,95.1084,VALID,0,VALID,24.1422,VALID,133,VALID,0.150781,
2008-05-30, 00:10:04,VALID,1008.9,VALID,0,VALID,95.1389,VALID,0,VALID,24.1422,VALID,133,VALID,0,
2008-05-30, 00:11:04,VALID,1008.93,VALID,0,VALID,95.1694,VALID,0,VALID,24.1422,VALID,133,VALID,0.00429688,
2008-05-30, 00:12:04,VALID,1008.92,VALID,0,VALID,95.1694,VALID,0,VALID,24.1227,VALID,133,VALID,0,
2008-05-30, 00:13:05,VALID,1008.9,VALID,0,VALID,95.1465,VALID,0.105969,VALID,24.1227,VALID,133,VALID,0.201172,
2008-05-30, 00:14:05,VALID,1008.84,VALID,0,VALID,95.1618,VALID,0,VALID,24.0837,VALID,132,VALID,0.358203,
2008-05-30, 00:15:05,VALID,1008.86,VALID,0,VALID,95.2075,VALID,0,VALID,24.0837,VALID,132,VALID,0.41875,
2008-05-30, 00:16:05,VALID,1008.86,VALID,0,VALID,95.2304,VALID,0,VALID,24.0643,VALID,132,VALID,0.407031,
2008-05-30, 00:17:05,VALID,1008.82,VALID,0,VALID,95.2685,VALID,0.105969,VALID,24.0429,VALID,132,VALID,0.339063,
2008-05-30, 00:18:05,VALID,1008.81,VALID,0,VALID,95.3067,VALID,0,VALID,24.0429,VALID,132,VALID,0.216797,
2008-05-30, 00:19:05,VALID,1008.78,VALID,0,VALID,95.299,VALID,0,VALID,24.0643,VALID,132,VALID,0.317187,
2008-05-30, 00:20:05,VALID,1008.75,VALID,0,VALID,95.3295,VALID,0.105969,VALID,24.0235,VALID,131,VALID,0.218359,
2008-05-30, 00:21:05,VALID,1008.74,VALID,0,VALID,95.3372,VALID,0.105969,VALID,24.0235,VALID,131,VALID,0.183984,
2008-05-30, 00:22:05,VALID,1008.72,VALID,0,VALID,95.36,VALID,0,VALID,23.965,VALID,131,VALID,0.248828,
2008-05-30, 00:23:05,VALID,1008.67,VALID,0,VALID,95.36,VALID,0.105969,VALID,23.9845,VALID,131,VALID,0.222656,
2008-05-30, 00:24:05,VALID,1008.66,VALID,0,VALID,95.4058,VALID,0,VALID,23.9845,VALID,228,VALID,0.479297,
2008-05-30, 00:25:05,VALID,1008.63,VALID,0,VALID,95.4744,VALID,0.105969,VALID,24.004,VALID,286,VALID,0.330078,
2008-05-30, 00:26:05,VALID,1008.61,VALID,0,VALID,95.5049,VALID,0,VALID,24.0235,VALID,275,VALID,0.339844,
2008-05-30, 00:27:05,VALID,1008.62,VALID,0,VALID,95.5431,VALID,0.105969,VALID,24.0429,VALID,268,VALID,0.335547,
2008-05-30, 00:28:05,VALID,1008.59,VALID,0,VALID,95.5431,VALID,0.105969,VALID,24.0819,VALID,240,VALID,0.446094,
2008-05-30, 00:29:05,VALID,1008.58,VALID,0,VALID,95.5202,VALID,0.105969,VALID,24.0624,VALID,253,VALID,0.7125,
2008-05-30, 00:30:05,VALID,1008.56,VALID,0,VALID,95.4897,VALID,0.105969,VALID,24.0819,VALID,251,VALID,0.509375,
2008-05-30, 00:31:05,VALID,1008.57,VALID,0,VALID,95.4744,VALID,0.105969,VALID,24.0819,VALID,235,VALID,0.551953,
2008-05-30, 00:32:05,VALID,1008.55,VALID,0,VALID,95.4439,VALID,0.105969,VALID,24.1014,VALID,252,VALID,0.196484,
2008-05-30, 00:33:05,VALID,1008.58,VALID,0,VALID,95.4211,VALID,0.105969,VALID,24.1014,VALID,252,VALID,0.0210938,
2008-05-30, 00:34:05,VALID,1008.59,VALID,0,VALID,95.4439,VALID,0.105969,VALID,24.1014,VALID,252,VALID,0.183984,
2008-05-30, 00:35:05,VALID,1008.56,VALID,0,VALID,95.4134,VALID,0.105969,VALID,24.1014,VALID,222,VALID,0.28125,
2008-05-30, 00:36:05,VALID,1008.55,VALID,0,VALID,95.3829,VALID,0.105969,VALID,24.0819,VALID,177,VALID,0.404687,
2008-05-30, 00:37:05,VALID,1008.51,VALID,0,VALID,95.3677,VALID,0.105969,VALID,24.0819,VALID,177,VALID,0.29375,
2008-05-30, 00:38:05,VALID,1008.48,VALID,0,VALID,95.3448,VALID,0.105969,VALID,24.0624,VALID,177,VALID,0.198828,
2008-05-30, 00:39:05,VALID,1008.46,VALID,0,VALID,95.3524,VALID,0.105969,VALID,24.0837,VALID,177,VALID,0.158594,
2008-05-30, 00:40:05,VALID,1008.44,VALID,0,VALID,95.3448,VALID,0.105969,VALID,24.0429,VALID,177,VALID,0.0132813,
2008-05-30, 00:41:05,VALID,1008.4,VALID,0,VALID,95.3677,VALID,0.105969,VALID,24.0429,VALID,177,VALID,0.116406,
2008-05-30, 00:42:05,VALID,1008.41,VALID,0,VALID,95.3524,VALID,0,VALID,24.0235,VALID,177,VALID,0.347266,
2008-05-30, 00:43:05,VALID,1008.4,VALID,0,VALID,95.3448,VALID,0,VALID,24.0448,VALID,177,VALID,0.379687,
2008-05-30, 00:44:05,VALID,1008.4,VALID,0,VALID,95.3372,VALID,0,VALID,24.0448,VALID,177,VALID,0.490625,
2008-05-30, 00:45:05,VALID,1008.38,VALID,0,VALID,95.3219,VALID,0,VALID,24.0448,VALID,177,VALID,0.558984,
2008-05-30, 00:46:05,VALID,1008.38,VALID,0,VALID,95.3219,VALID,0,VALID,24.0253,VALID,177,VALID,0.540234,
2008-05-30, 00:47:05,VALID,1008.36,VALID,0,VALID,95.3067,VALID,0,VALID,24.0058,VALID,177,VALID,0.500781,
2008-05-30, 00:48:05,VALID,1008.39,VALID,0,VALID,95.3372,VALID,0,VALID,24.0058,VALID,177,VALID,0.45625,
2008-05-30, 00:49:05,VALID,1008.39,VALID,0,VALID,95.3295,VALID,0,VALID,23.9863,VALID,177,VALID,0.406641,
2008-05-30, 00:50:05,VALID,1008.42,VALID,0,VALID,95.3448,VALID,0,VALID,24.0058,VALID,177,VALID,0.401953,
2008-05-30, 00:51:05,VALID,1008.37,VALID,0,VALID,95.36,VALID,0,VALID,23.9863,VALID,174,VALID,0.48125,
2008-05-30, 00:52:05,VALID,1008.35,VALID,0,VALID,95.3524,VALID,0,VALID,23.9668,VALID,158,VALID,0.684375,
2008-05-30, 00:53:05,VALID,1008.31,VALID,0,VALID,95.3372,VALID,0,VALID,24.0058,VALID,159,VALID,0.685547,
2008-05-30, 00:54:05,VALID,1008.3,VALID,0,VALID,95.3143,VALID,0,VALID,24.0076,VALID,163,VALID,0.813281,
2008-05-30, 00:55:05,VALID,1008.27,VALID,0,VALID,95.2914,VALID,0,VALID,23.9863,VALID,170,VALID,0.599219,
2008-05-30, 00:56:05,VALID,1008.26,VALID,0,VALID,95.2457,VALID,0,VALID,23.9668,VALID,182,VALID,0.792969,
2008-05-30, 00:57:05,VALID,1008.23,VALID,0,VALID,95.2762,VALID,0,VALID,23.9863,VALID,188,VALID,0.572656,
2008-05-30, 00:58:05,VALID,1008.21,VALID,0,VALID,95.3067,VALID,0,VALID,24.0058,VALID,189,VALID,0.541016,
2008-05-30, 00:59:05,VALID,1008.17,VALID,0,VALID,95.2304,VALID,0,VALID,24.0076,VALID,198,VALID,0.961719,
2008-05-30, 01:00:05,VALID,1008.17,VALID,0,VALID,95.2075,VALID,0,VALID,23.9863,VALID,183,VALID,0.659375,
2008-05-30, 01:01:05,VALID,1008.16,VALID,0,VALID,95.1694,VALID,0,VALID,23.9473,VALID,192,VALID,0.774609,
2008-05-30, 01:02:05,VALID,1008.12,VALID,0,VALID,95.1465,VALID,0,VALID,23.9863,VALID,170,VALID,0.492578,
2008-05-30, 01:03:05,VALID,1008.1,VALID,0,VALID,95.0931,VALID,0,VALID,23.9668,VALID,149,VALID,0.767578,
2008-05-30, 01:04:05,VALID,1008.05,VALID,0,VALID,95.0016,VALID,0,VALID,23.9863,VALID,169,VALID,1.30313,
2008-05-30, 01:05:05,VALID,1008.06,VALID,0,VALID,94.9101,VALID,0,VALID,23.9863,VALID,168,VALID,1.31211,
2008-05-30, 01:06:05,VALID,1008.07,VALID,0,VALID,94.8415,VALID,0,VALID,24.0058,VALID,168,VALID,0.937109,
2008-05-30, 01:07:05,VALID,1008.06,VALID,0,VALID,94.8034,VALID,0,VALID,24.0058,VALID,169,VALID,0.737109,
2008-05-30, 01:08:05,VALID,1008.04,VALID,0,VALID,94.7957,VALID,0,VALID,24.0058,VALID,161,VALID,0.643359,
2008-05-30, 01:09:05,VALID,1008.03,VALID,0,VALID,94.75,VALID,0,VALID,23.9863,VALID,164,VALID,0.657422,
2008-05-30, 01:10:05,VALID,1008.06,VALID,0,VALID,94.75,VALID,0,VALID,24.0076,VALID,189,VALID,0.70625,
2008-05-30, 01:11:05,VALID,1008.04,VALID,0,VALID,94.7271,VALID,0,VALID,23.9863,VALID,182,VALID,0.433984,
2008-05-30, 01:12:05,VALID,1008.01,VALID,0,VALID,94.689,VALID,0,VALID,23.9863,VALID,195,VALID,1.20273,
2008-05-30, 01:13:05,VALID,1008,VALID,0,VALID,94.6508,VALID,0,VALID,24.0058,VALID,196,VALID,0.662891,
2008-05-30, 01:14:05,VALID,1007.99,VALID,0,VALID,94.6051,VALID,0,VALID,24.0271,VALID,215,VALID,0.4375,
2008-05-30, 01:15:05,VALID,1007.94,VALID,0,VALID,94.567,VALID,0,VALID,24.0271,VALID,190,VALID,0.880859,
2008-05-30, 01:16:05,VALID,1007.92,VALID,0,VALID,94.5517,VALID,0,VALID,24.0253,VALID,187,VALID,0.631641,
2008-05-30, 01:17:05,VALID,1007.87,VALID,0,VALID,94.5288,VALID,0,VALID,24.0253,VALID,209,VALID,0.720312,
2008-05-30, 01:18:05,VALID,1007.87,VALID,0,VALID,94.5212,VALID,0,VALID,24.0058,VALID,209,VALID,0.655859,
2008-05-30, 01:19:05,VALID,1007.84,VALID,0,VALID,94.5212,VALID,0,VALID,24.0253,VALID,185,VALID,0.689062,
2008-05-30, 01:20:05,VALID,1007.83,VALID,0,VALID,94.5288,VALID,0,VALID,24.0253,VALID,184,VALID,0.482031,
2008-05-30, 01:21:05,VALID,1007.84,VALID,0,VALID,94.5822,VALID,0,VALID,24.0253,VALID,184,VALID,0.432031,
2008-05-30, 01:22:05,VALID,1007.82,VALID,0,VALID,94.628,VALID,0,VALID,24.0253,VALID,184,VALID,0.252734,
2008-05-30, 01:23:05,VALID,1007.85,VALID,0,VALID,94.6432,VALID,0,VALID,24.0058,VALID,184,VALID,0.307813,
2008-05-30, 01:24:05,VALID,1007.89,VALID,0,VALID,94.6814,VALID,0,VALID,24.0058,VALID,184,VALID,0.190625,
2008-05-30, 01:25:05,VALID,1007.86,VALID,0,VALID,94.7271,VALID,0,VALID,23.9863,VALID,184,VALID,0.0328125,
2008-05-30, 01:26:05,VALID,1007.86,VALID,0,VALID,94.7576,VALID,0,VALID,24.0076,VALID,184,VALID,0.203125,
2008-05-30, 01:27:05,VALID,1007.89,VALID,0,VALID,94.8262,VALID,0,VALID,23.9863,VALID,194,VALID,0.433203,
2008-05-30, 01:28:05,VALID,1007.86,VALID,0,VALID,94.8339,VALID,0,VALID,23.9863,VALID,195,VALID,0.29375,
2008-05-30, 01:29:05,VALID,1007.86,VALID,0,VALID,94.872,VALID,0,VALID,24.0058,VALID,195,VALID,0.266406,
2008-05-30, 01:30:05,VALID,1007.87,VALID,0,VALID,94.9025,VALID,0,VALID,23.9863,VALID,193,VALID,0.279687,
2008-05-30, 01:31:05,VALID,1007.9,VALID,0,VALID,94.9101,VALID,0,VALID,24.0058,VALID,193,VALID,0.200391,
2008-05-30, 01:32:05,VALID,1007.9,VALID,0,VALID,94.9178,VALID,0,VALID,23.9863,VALID,193,VALID,0.197656,
2008-05-30, 01:33:05,VALID,1007.93,VALID,0,VALID,94.9178,VALID,0,VALID,24.0076,VALID,193,VALID,0.114063,
2008-05-30, 01:34:05,VALID,1007.93,VALID,0,VALID,94.9406,VALID,0,VALID,23.9863,VALID,193,VALID,0.280859,
2008-05-30, 01:35:05,VALID,1007.95,VALID,0,VALID,94.9559,VALID,0,VALID,23.9863,VALID,193,VALID,0.133203,
2008-05-30, 01:36:05,VALID,1007.99,VALID,0,VALID,94.9483,VALID,0,VALID,24.0058,VALID,193,VALID,0.00195313,
2008-05-30, 01:37:05,VALID,1008,VALID,0,VALID,94.9788,VALID,0,VALID,23.9863,VALID,193,VALID,0.120312,
2008-05-30, 01:38:05,VALID,1008,VALID,0,VALID,95.0169,VALID,0,VALID,24.0058,VALID,193,VALID,0,
2008-05-30, 01:39:05,VALID,1008.04,VALID,0,VALID,95.0855,VALID,0,VALID,24.0253,VALID,193,VALID,0.0109375,
2008-05-30, 01:40:05,VALID,1008.02,VALID,0,VALID,95.1084,VALID,0,VALID,24.0253,VALID,193,VALID,0.225391,
2008-05-30, 01:41:05,VALID,1008.03,VALID,0,VALID,95.1008,VALID,0,VALID,24.0466,VALID,193,VALID,0.330078,
2008-05-30, 01:42:05,VALID,1008,VALID,0,VALID,95.0855,VALID,0,VALID,23.9863,VALID,193,VALID,0.489844,
2008-05-30, 01:43:05,VALID,1008.01,VALID,0,VALID,95.0703,VALID,0,VALID,23.9881,VALID,348,VALID,0.514063,
2008-05-30, 01:44:05,VALID,1008.03,VALID,0,VALID,95.1008,VALID,0,VALID,23.9863,VALID,348,VALID,0.508594,
2008-05-30, 01:45:05,VALID,1008.02,VALID,0,VALID,95.1313,VALID,0,VALID,23.9278,VALID,348,VALID,0.458203,
2008-05-30, 01:46:05,VALID,1007.99,VALID,0,VALID,95.1465,VALID,0,VALID,23.8889,VALID,348,VALID,0.555078,
2008-05-30, 01:47:05,VALID,1007.96,VALID,0,VALID,95.177,VALID,0,VALID,23.8694,VALID,348,VALID,0.530078,
2008-05-30, 01:48:05,VALID,1007.96,VALID,0,VALID,95.2152,VALID,0,VALID,23.8499,VALID,348,VALID,0.373828,
2008-05-30, 01:49:05,VALID,1007.95,VALID,0,VALID,95.2609,VALID,0,VALID,23.8694,VALID,348,VALID,0.297656,
2008-05-30, 01:50:05,VALID,1007.92,VALID,0,VALID,95.299,VALID,0,VALID,23.8694,VALID,348,VALID,0.262891,
2008-05-30, 01:51:05,VALID,1007.91,VALID,0,VALID,95.3219,VALID,0,VALID,23.8499,VALID,348,VALID,0.226563,
2008-05-30, 01:52:05,VALID,1007.88,VALID,0,VALID,95.3448,VALID,0,VALID,23.8499,VALID,348,VALID,0.2125,
2008-05-30, 01:53:05,VALID,1007.88,VALID,0,VALID,95.3905,VALID,0,VALID,23.8304,VALID,348,VALID,0.268359,
2008-05-30, 01:54:05,VALID,1007.86,VALID,0,VALID,95.4058,VALID,0,VALID,23.8304,VALID,348,VALID,0.283594,
2008-05-30, 01:55:05,VALID,1007.85,VALID,0,VALID,95.4211,VALID,0,VALID,23.8517,VALID,348,VALID,0.288672,
2008-05-30, 01:56:05,VALID,1007.84,VALID,0,VALID,95.4363,VALID,0,VALID,23.8304,VALID,348,VALID,0.332031,
2008-05-30, 01:57:05,VALID,1007.86,VALID,0,VALID,95.4363,VALID,0,VALID,23.8304,VALID,348,VALID,0.350391,
2008-05-30, 01:58:05,VALID,1007.84,VALID,0,VALID,95.4439,VALID,0.105969,VALID,23.8109,VALID,348,VALID,0.416016,
2008-05-30, 01:59:05,VALID,1007.83,VALID,0,VALID,95.4668,VALID,0.105969,VALID,23.7896,VALID,349,VALID,0.554297,
2008-05-30, 02:00:05,VALID,1007.84,VALID,0,VALID,95.4744,VALID,0.105969,VALID,23.7896,VALID,358,VALID,0.49375,
2008-05-30, 02:01:05,VALID,1007.85,VALID,0,VALID,95.4516,VALID,0.105969,VALID,23.7701,VALID,3,VALID,0.483984,
2008-05-30, 02:02:05,VALID,1007.85,VALID,0,VALID,95.4897,VALID,0.105969,VALID,23.772,VALID,8,VALID,0.496875,
2008-05-30, 02:03:05,VALID,1007.89,VALID,0,VALID,95.4821,VALID,0.105969,VALID,23.7117,VALID,8,VALID,0.533203,
2008-05-30, 02:04:05,VALID,1007.88,VALID,0,VALID,95.4821,VALID,0.105969,VALID,23.7507,VALID,11,VALID,0.448828,
2008-05-30, 02:05:05,VALID,1007.89,VALID,0,VALID,95.4973,VALID,0,VALID,23.7312,VALID,22,VALID,0.359766,
2008-05-30, 02:06:05,VALID,1007.91,VALID,0,VALID,95.4973,VALID,0.105969,VALID,23.7135,VALID,22,VALID,0.391406,
2008-05-30, 02:07:05,VALID,1007.92,VALID,0,VALID,95.4821,VALID,0.105969,VALID,23.6727,VALID,22,VALID,0.472266,
2008-05-30, 02:08:05,VALID,1007.92,VALID,0,VALID,95.4973,VALID,0.105969,VALID,23.6745,VALID,30,VALID,0.483984,
2008-05-30, 02:09:05,VALID,1007.93,VALID,0,VALID,95.4821,VALID,0,VALID,23.6338,VALID,30,VALID,0.438672,
2008-05-30, 02:10:05,VALID,1007.94,VALID,0,VALID,95.5126,VALID,0.105969,VALID,23.6356,VALID,30,VALID,0.322656,
2008-05-30, 02:11:05,VALID,1007.91,VALID,0,VALID,95.5202,VALID,0.105969,VALID,23.6143,VALID,30,VALID,0.323828,
2008-05-30, 02:12:05,VALID,1007.94,VALID,0,VALID,95.5278,VALID,0,VALID,23.5948,VALID,30,VALID,0.192969,
2008-05-30, 02:13:05,VALID,1007.9,VALID,0,VALID,95.5659,VALID,0.105969,VALID,23.6356,VALID,30,VALID,0,
2008-05-30, 02:14:05,VALID,1007.91,VALID,0,VALID,95.5812,VALID,0,VALID,23.6161,VALID,30,VALID,0,
2008-05-30, 02:15:05,VALID,1007.9,VALID,0,VALID,95.5812,VALID,0.105969,VALID,23.5753,VALID,30,VALID,0.108984,
2008-05-30, 02:16:05,VALID,1007.93,VALID,0,VALID,95.6041,VALID,0,VALID,23.5966,VALID,30,VALID,0.225,
2008-05-30, 02:17:05,VALID,1007.9,VALID,0,VALID,95.6117,VALID,0.105969,VALID,23.5753,VALID,30,VALID,0.243359,
2008-05-30, 02:18:05,VALID,1007.91,VALID,0,VALID,95.6193,VALID,0.105969,VALID,23.5558,VALID,30,VALID,0.219141,
2008-05-30, 02:19:05,VALID,1007.91,VALID,0,VALID,95.6193,VALID,0,VALID,23.5558,VALID,30,VALID,0.285937,
2008-05-30, 02:20:05,VALID,1007.95,VALID,0,VALID,95.6422,VALID,0,VALID,23.5576,VALID,27,VALID,0.141406,
2008-05-30, 02:21:05,VALID,1007.92,VALID,0,VALID,95.6574,VALID,0,VALID,23.5363,VALID,27,VALID,0.146094,
2008-05-30, 02:22:05,VALID,1007.93,VALID,0,VALID,95.6574,VALID,0,VALID,23.5576,VALID,27,VALID,0.105078,
2008-05-30, 02:23:05,VALID,1007.95,VALID,0,VALID,95.6574,VALID,0.105969,VALID,23.5363,VALID,27,VALID,0.151562,
2008-05-30, 02:24:05,VALID,1007.94,VALID,0,VALID,95.6651,VALID,0,VALID,23.5381,VALID,17,VALID,0.229297,
2008-05-30, 02:25:05,VALID,1007.9,VALID,0,VALID,95.6956,VALID,0.105969,VALID,23.5169,VALID,300,VALID,0.0558594,
2008-05-30, 02:26:05,VALID,1007.9,VALID,0,VALID,95.7032,VALID,0.105969,VALID,23.5363,VALID,265,VALID,0.194922,
2008-05-30, 02:27:05,VALID,1007.89,VALID,0,VALID,95.7261,VALID,0,VALID,23.5558,VALID,249,VALID,0.0902344,
2008-05-30, 02:28:05,VALID,1007.87,VALID,0,VALID,95.7337,VALID,0,VALID,23.5381,VALID,249,VALID,0.0554687,
2008-05-30, 02:29:05,VALID,1007.86,VALID,0,VALID,95.749,VALID,0,VALID,23.5576,VALID,249,VALID,0.116797,
2008-05-30, 02:30:05,VALID,1007.9,VALID,0,VALID,95.749,VALID,0,VALID,23.5576,VALID,249,VALID,0.139062,
2008-05-30, 02:31:05,VALID,1007.88,VALID,0,VALID,95.7337,VALID,0,VALID,23.5381,VALID,339,VALID,0.352734,
2008-05-30, 02:32:05,VALID,1007.87,VALID,0,VALID,95.7185,VALID,0,VALID,23.5381,VALID,343,VALID,0.126953,
2008-05-30, 02:33:05,VALID,1007.89,VALID,0,VALID,95.7261,VALID,0,VALID,23.5186,VALID,344,VALID,0.280859,
2008-05-30, 02:34:05,VALID,1007.87,VALID,0,VALID,95.7261,VALID,0,VALID,23.4992,VALID,347,VALID,0.303516,
2008-05-30, 02:35:05,VALID,1007.9,VALID,0,VALID,95.7413,VALID,0,VALID,23.5186,VALID,347,VALID,0.161328,
2008-05-30, 02:36:05,VALID,1007.89,VALID,0,VALID,95.749,VALID,0,VALID,23.5186,VALID,347,VALID,0,
2008-05-30, 02:37:05,VALID,1007.88,VALID,0,VALID,95.7566,VALID,0,VALID,23.4992,VALID,347,VALID,0.122656,
2008-05-30, 02:38:05,VALID,1007.89,VALID,0,VALID,95.7718,VALID,0,VALID,23.5186,VALID,329,VALID,0.307813,
2008-05-30, 02:39:05,VALID,1007.87,VALID,0,VALID,95.7795,VALID,0,VALID,23.5186,VALID,312,VALID,0.310937,
2008-05-30, 02:40:05,VALID,1007.88,VALID,0,VALID,95.7566,VALID,0,VALID,23.5399,VALID,296,VALID,0.292969,
2008-05-30, 02:41:05,VALID,1007.88,VALID,0,VALID,95.7718,VALID,0,VALID,23.5186,VALID,296,VALID,0.125,
2008-05-30, 02:42:05,VALID,1007.87,VALID,0,VALID,95.7795,VALID,0,VALID,23.5594,VALID,296,VALID,0.00117188,
2008-05-30, 02:43:05,VALID,1007.9,VALID,0,VALID,95.7795,VALID,0.105969,VALID,23.5186,VALID,296,VALID,0.148047,
2008-05-30, 02:44:05,VALID,1007.92,VALID,0,VALID,95.7871,VALID,0.105969,VALID,23.5169,VALID,302,VALID,0.217969,
2008-05-30, 02:45:05,VALID,1007.9,VALID,0,VALID,95.7718,VALID,0.105969,VALID,23.5169,VALID,307,VALID,0.223047,
2008-05-30, 02:46:05,VALID,1007.92,VALID,0,VALID,95.7795,VALID,0,VALID,23.5169,VALID,298,VALID,0.204297,
2008-05-30, 02:47:05,VALID,1007.92,VALID,0,VALID,95.7718,VALID,0.105969,VALID,23.4974,VALID,298,VALID,0.177344,
2008-05-30, 02:48:05,VALID,1007.92,VALID,0,VALID,95.7795,VALID,0.105969,VALID,23.4974,VALID,298,VALID,0.152344,
2008-05-30, 02:49:05,VALID,1007.92,VALID,0,VALID,95.7718,VALID,0,VALID,23.4974,VALID,299,VALID,0.0609375,
2008-05-30, 02:50:05,VALID,1007.94,VALID,0,VALID,95.7795,VALID,0.105969,VALID,23.4779,VALID,299,VALID,0.0300781,
2008-05-30, 02:51:05,VALID,1007.93,VALID,0,VALID,95.7642,VALID,0,VALID,23.4779,VALID,299,VALID,0.0441406,
2008-05-30, 02:52:05,VALID,1007.92,VALID,0,VALID,95.7718,VALID,0.105969,VALID,23.4779,VALID,299,VALID,0,
2008-05-30, 02:53:05,VALID,1007.91,VALID,0,VALID,95.7871,VALID,0.105969,VALID,23.4779,VALID,299,VALID,0.003125,
2008-05-30, 02:54:05,VALID,1007.92,VALID,0,VALID,95.7871,VALID,0.105969,VALID,23.4779,VALID,299,VALID,0,
2008-05-30, 02:55:05,VALID,1007.94,VALID,0,VALID,95.7947,VALID,0.105969,VALID,23.5186,VALID,299,VALID,0.0800781,
2008-05-30, 02:56:05,VALID,1007.95,VALID,0,VALID,95.7947,VALID,0,VALID,23.4974,VALID,299,VALID,0.267969,
2008-05-30, 02:57:05,VALID,1007.94,VALID,0,VALID,95.7795,VALID,0,VALID,23.4974,VALID,299,VALID,0.335156,
2008-05-30, 02:58:04,VALID,1007.96,VALID,0,VALID,95.7795,VALID,0.105969,VALID,23.4974,VALID,90,VALID,0.525,
2008-05-30, 02:59:04,VALID,1007.97,VALID,0,VALID,95.7947,VALID,0,VALID,23.5381,VALID,90,VALID,0.378906,
2008-05-30, 03:00:04,VALID,1008.01,VALID,0,VALID,95.7795,VALID,0,VALID,23.5363,VALID,101,VALID,0.398828,
2008-05-30, 03:01:04,VALID,1007.98,VALID,0,VALID,95.7795,VALID,0.105969,VALID,23.6161,VALID,101,VALID,0.457031,
2008-05-30, 03:02:04,VALID,1007.98,VALID,0,VALID,95.7642,VALID,0.105969,VALID,23.5558,VALID,101,VALID,0.583984,
2008-05-30, 03:03:04,VALID,1007.98,VALID,0,VALID,95.7642,VALID,0.105969,VALID,23.5771,VALID,97,VALID,0.63125,
2008-05-30, 03:04:04,VALID,1008,VALID,0,VALID,95.749,VALID,0.105969,VALID,23.5948,VALID,97,VALID,0.399609,
2008-05-30, 03:05:04,VALID,1007.96,VALID,0,VALID,95.7566,VALID,0.105969,VALID,23.5948,VALID,92,VALID,0.586328,
2008-05-30, 03:06:04,VALID,1007.95,VALID,0,VALID,95.7108,VALID,0.105969,VALID,23.5753,VALID,59,VALID,0.8375,
2008-05-30, 03:07:04,VALID,1008.01,VALID,0,VALID,95.6803,VALID,0.105969,VALID,23.5771,VALID,44,VALID,0.709375,
2008-05-30, 03:08:04,VALID,1008.01,VALID,0,VALID,95.6269,VALID,0.105969,VALID,23.5558,VALID,46,VALID,0.594922,
2008-05-30, 03:09:04,VALID,1007.98,VALID,0,VALID,95.6041,VALID,0,VALID,23.5186,VALID,46,VALID,0.548828,
2008-05-30, 03:10:04,VALID,1008.02,VALID,0,VALID,95.6193,VALID,0.105969,VALID,23.4974,VALID,45,VALID,0.412109,
2008-05-30, 03:11:04,VALID,1008.01,VALID,0,VALID,95.6041,VALID,0.105969,VALID,23.4584,VALID,45,VALID,0.487891,
2008-05-30, 03:12:04,VALID,1008.01,VALID,0,VALID,95.6193,VALID,0.105969,VALID,23.4797,VALID,56,VALID,0.551953,
2008-05-30, 03:13:04,VALID,1007.99,VALID,0,VALID,95.6422,VALID,0,VALID,23.4602,VALID,89,VALID,0.574219,
2008-05-30, 03:14:04,VALID,1007.97,VALID,0,VALID,95.6422,VALID,0,VALID,23.4407,VALID,54,VALID,0.703125,
2008-05-30, 03:15:04,VALID,1008,VALID,0,VALID,95.6651,VALID,0,VALID,23.4212,VALID,70,VALID,0.972266,
2008-05-30, 03:16:04,VALID,1007.98,VALID,0,VALID,95.6651,VALID,0,VALID,23.423,VALID,66,VALID,0.441016,
2008-05-30, 03:17:04,VALID,1007.96,VALID,0,VALID,95.6803,VALID,0,VALID,23.423,VALID,66,VALID,0.185156,
2008-05-30, 03:18:04,VALID,1007.97,VALID,0,VALID,95.6956,VALID,0,VALID,23.4017,VALID,67,VALID,0.334375,
2008-05-30, 03:19:04,VALID,1008,VALID,0,VALID,95.6956,VALID,0,VALID,23.4017,VALID,57,VALID,0.501953,
2008-05-30, 03:20:04,VALID,1007.99,VALID,0,VALID,95.6956,VALID,0,VALID,23.3823,VALID,50,VALID,0.303516,
2008-05-30, 03:21:04,VALID,1007.98,VALID,0,VALID,95.688,VALID,0,VALID,23.3628,VALID,80,VALID,0.631641,
2008-05-30, 03:22:04,VALID,1007.97,VALID,0,VALID,95.7032,VALID,0,VALID,23.3628,VALID,80,VALID,0.480859,
2008-05-30, 03:23:04,VALID,1007.94,VALID,0,VALID,95.7108,VALID,0,VALID,23.3823,VALID,101,VALID,0.819141,
2008-05-30, 03:24:04,VALID,1007.94,VALID,0,VALID,95.7185,VALID,0,VALID,23.3628,VALID,97,VALID,0.723047,
2008-05-30, 03:25:04,VALID,1007.95,VALID,0,VALID,95.7185,VALID,0,VALID,23.3433,VALID,85,VALID,0.578906,
2008-05-30, 03:26:04,VALID,1007.93,VALID,0,VALID,95.7108,VALID,0,VALID,23.3628,VALID,80,VALID,0.55,
2008-05-30, 03:27:04,VALID,1007.91,VALID,0,VALID,95.7185,VALID,0,VALID,23.3433,VALID,61,VALID,0.353516,
2008-05-30, 03:28:04,VALID,1007.88,VALID,0,VALID,95.7261,VALID,0,VALID,23.3238,VALID,59,VALID,0.415625,
2008-05-30, 03:29:04,VALID,1007.86,VALID,0,VALID,95.7261,VALID,0,VALID,23.3043,VALID,58,VALID,0.114453,
2008-05-30, 03:30:04,VALID,1007.85,VALID,0,VALID,95.7337,VALID,0,VALID,23.3061,VALID,55,VALID,0.325,
2008-05-30, 03:31:04,VALID,1007.82,VALID,0,VALID,95.7337,VALID,0,VALID,23.3043,VALID,41,VALID,0.385156,
2008-05-30, 03:32:04,VALID,1007.82,VALID,0,VALID,95.7642,VALID,0,VALID,23.2848,VALID,323,VALID,0.531641,
2008-05-30, 03:33:04,VALID,1007.82,VALID,0,VALID,95.749,VALID,0,VALID,23.2848,VALID,310,VALID,0.680078,
2008-05-30, 03:34:04,VALID,1007.83,VALID,0,VALID,95.7795,VALID,0,VALID,23.2848,VALID,306,VALID,0.594922,
2008-05-30, 03:35:04,VALID,1007.83,VALID,0,VALID,95.7718,VALID,0,VALID,23.2866,VALID,305,VALID,0.525391,
2008-05-30, 03:36:04,VALID,1007.87,VALID,0,VALID,95.7718,VALID,0,VALID,23.2654,VALID,320,VALID,0.459766,
2008-05-30, 03:37:04,VALID,1007.87,VALID,0,VALID,95.749,VALID,0,VALID,23.2848,VALID,320,VALID,0.277344,
2008-05-30, 03:38:04,VALID,1007.88,VALID,0,VALID,95.7566,VALID,0,VALID,23.2264,VALID,320,VALID,0.212891,
2008-05-30, 03:39:04,VALID,1007.92,VALID,0,VALID,95.7718,VALID,0,VALID,23.2476,VALID,41,VALID,0.366797,
2008-05-30, 03:40:04,VALID,1007.91,VALID,0,VALID,95.7871,VALID,0,VALID,23.2069,VALID,42,VALID,0.103516,
2008-05-30, 03:41:04,VALID,1007.93,VALID,0,VALID,95.7871,VALID,0,VALID,23.2069,VALID,62,VALID,0.29375,